Voltar ao catálogo

DMSP 5D-2 F15 DEB

AtivoSSO
NORAD 25993·DEBRIS·🇺🇸 United States

Lançado Dec 12, 1999 de Vandenberg Space Force Base

Loading…

Próximas Passagens (próximas 24 horas)

TLE

AtualizadoSource: Space-Track

Época: Sep 14, 2026, 11:25 UTC

1 25993U 99067C   26257.47591236  .00003138  00000-0  71885-3 0  9995
2 25993  98.3514 244.4965 0004425  44.9589 107.3792 14.56295867396952

Acompanhe DMSP 5D-2 F15 DEB em tempo real com AllMySat

Download on the App Store